Location: State Camp
(41.2367°N, 77.7828°W)
Time: 07:30:28
(UTC-05:00)

Amateur Radio Satellites - All Passes

Search period start: 01 March 2015 07:00
Search period end: 02 March 2015 07:00
Location: State Camp, 41.2367°N, 77.7828°W

Satellite Date Start Highest point End Downlink Frequencies (MHz)
Time Altitude Azimuth
AIST 1 01 Mar 07:05:45 07:09:54 46° 93° (E) 07:14:07
GONETS M04 01 Mar 07:08:05 07:11:21 13° 54° (NE) 07:15:15
AO-7 01 Mar 07:22:16 07:25:31 12° 315° (NW) 07:28:18 29.400- 29.500
CUBESAT XI-V 01 Mar 07:35:32 07:36:01 10° 274° (W) 07:36:09 437.345
Cubesat XI-IV 01 Mar 07:37:56 07:42:36 30° 293° (WNW) 07:47:10 437.490
CUTE-I 01 Mar 07:47:41 07:52:04 25° 295° (WNW) 07:56:19 437.470
RS-15 01 Mar 07:54:27 08:05:39 59° 49° (NE) 08:17:24 29.354- 29.394
DOVE 4 01 Mar 08:14:49 08:17:11 15° 89° (E) 08:19:42 437.250
SEEDS 01 Mar 08:23:08 08:26:24 22° 93° (E) 08:29:46 437.485
CANX-2 01 Mar 08:23:15 08:26:56 29° 95° (E) 08:30:41 2200.000
O/OREOS (USA 219) 01 Mar 08:31:50 08:34:02 14° 100° (E) 08:36:28 437.305
CINEMA 3 01 Mar 08:36:04 08:37:57 13° 89° (E) 08:40:02 145.822/145.860
HO-68 01 Mar 08:37:35 08:44:28 47° 99° (E) 08:51:21 435.675
CUTE 1.7 + AOD 2 01 Mar 08:41:52 08:45:55 42° 98° (E) 08:49:59 437.475
AIST 1 01 Mar 08:45:15 08:47:55 15° 292° (WNW) 08:50:27
BRITE-PL 01 Mar 08:54:34 08:59:14 84° 284° (WNW) 09:03:32 437.365/2234.400
GONETS M04 01 Mar 09:01:43 09:10:25 66° 78° (ENE) 09:19:09
CUBEBUG 2 01 Mar 09:07:39 09:10:14 17° 91° (E) 09:12:59 437.445
GOMX 1 01 Mar 09:08:08 09:12:37 90° 91° (E) 09:16:50 467.674
UNISAT 6 01 Mar 09:10:02 09:13:34 25° 69° (ENE) 09:17:10 437.425
Oscar 11 01 Mar 09:12:16 09:15:55 27° 95° (E) 09:19:37 145.826/435.025
DELFI C3 01 Mar 09:15:20 09:18:30 22° 93° (E) 09:21:46 145.870
NANOSAT C BR1 01 Mar 09:18:35 09:21:17 17° 66° (ENE) 09:24:07 145.865
ISS 01 Mar 09:19:11 09:22:15 41° 139° (SE) 09:25:19 145.825
AAUSAT CUBESAT 2 01 Mar 09:32:03 09:36:15 84° 283° (WNW) 09:40:27 437.432
COMPASS 1 01 Mar 09:33:17 09:37:29 70° 284° (WNW) 09:41:40 437.405
DX 1 01 Mar 09:33:51 09:37:10 21° 93° (E) 09:40:34 434.975-435.025
TIGRISAT 01 Mar 09:35:15 09:39:26 44° 73° (ENE) 09:43:35 435.000
ANTELSAT 01 Mar 09:47:41 09:52:04 62° 75° (ENE) 09:56:23 437.575/2403.000
QB50P1 01 Mar 09:49:36 09:53:30 36° 71° (ENE) 09:57:27 145.935-145.965
DOVE 4 01 Mar 09:51:14 09:55:21 43° 288° (WNW) 09:59:18 437.250
QB50P2 01 Mar 09:52:45 09:56:44 39° 72° (ENE) 10:00:46 145.880/145.840
FUNcube-1 01 Mar 09:53:15 09:57:04 35° 97° (E) 10:00:55 145.935
ZACube-1 01 Mar 09:53:50 09:57:42 37° 97° (E) 10:01:35 437.345
SEEDS 01 Mar 09:58:33 10:02:18 31° 289° (WNW) 10:05:59 437.485
CANX-2 01 Mar 09:59:20 10:02:48 24° 291° (WNW) 10:06:11 2200.000
UKube-1 01 Mar 10:04:57 10:09:08 44° 99° (E) 10:13:17 .
RS-15 01 Mar 10:07:16 10:17:55 44° 250° (WSW) 10:28:47 29.354- 29.394
O/OREOS (USA 219) 01 Mar 10:08:32 10:13:01 57° 295° (WNW) 10:17:33 437.305
BUGSAT 1 01 Mar 10:08:34 10:12:36 43° 72° (ENE) 10:16:41 437.445
UWE-3 01 Mar 10:09:02 10:13:11 70° 101° (E) 10:17:20 435.000/436.395/437.385
DUCHIFAT 1 01 Mar 10:09:05 10:13:17 58° 74° (ENE) 10:17:31 145.980
HUMSAT D 01 Mar 10:10:28 10:14:04 29° 96° (E) 10:17:42 437.325/437.525
CINEMA 3 01 Mar 10:11:31 10:15:35 48° 287° (WNW) 10:19:34 145.822/145.860
SO-50 01 Mar 10:16:00 10:20:39 39° 50° (NE) 10:25:17 436.795
CUTE 1.7 + AOD 2 01 Mar 10:18:45 10:21:34 17° 293° (WNW) 10:24:16 437.475
50 SAT 01 Mar 10:24:52 10:28:20 29° 96° (E) 10:31:50 437.505
HO-68 01 Mar 10:25:38 10:32:02 35° 297° (WNW) 10:38:19 435.675
POLYITAN 1 01 Mar 10:27:15 10:31:34 85° 257° (WSW) 10:35:53 437.675
POPSAT HIP 1 01 Mar 10:28:37 10:32:56 83° 256° (WSW) 10:37:15 437.405
CUBEBUG 2 01 Mar 10:43:19 10:47:13 38° 288° (WNW) 10:51:03 437.445
UNISAT 6 01 Mar 10:46:22 10:50:18 30° 264° (W) 10:54:08 437.425
Oscar 11 01 Mar 10:48:24 10:52:04 27° 291° (WNW) 10:55:40 145.826/435.025
DELFI C3 01 Mar 10:50:11 10:53:45 29° 289° (WNW) 10:57:15 145.870
NANOSAT C BR1 01 Mar 10:52:45 10:56:51 44° 261° (W) 11:00:58 145.865
ISS 01 Mar 10:55:56 10:58:46 27° 336° (NNW) 11:01:37 145.825
GONETS M04 01 Mar 10:59:40 11:06:40 27° 277° (W) 11:13:23
DANDE 01 Mar 11:00:03 11:02:24 26° 74° (ENE) 11:04:41 436.750
AISAT 01 Mar 11:04:56 11:09:25 88° 103° (ESE) 11:13:51 437.250
DX 1 01 Mar 11:09:34 11:13:32 34° 290° (WNW) 11:17:26 434.975-435.025
TIGRISAT 01 Mar 11:13:33 11:16:28 17° 269° (W) 11:19:11 435.000
CUBEBUG 1 01 Mar 11:14:14 11:18:30 46° 98° (E) 11:22:44 437.445
VELOX 1 01 Mar 11:15:16 11:19:44 74° 285° (WNW) 11:24:09 145.980
ESTCUBE 1 01 Mar 11:24:37 11:29:11 68° 102° (ESE) 11:33:42 437.505/2401.250
QB50P1 01 Mar 11:26:21 11:29:32 20° 267° (W) 11:32:38 145.935-145.965
ANTELSAT 01 Mar 11:27:40 11:29:21 12° 271° (W) 11:30:46 437.575/2403.000
QB50P2 01 Mar 11:29:51 11:32:51 18° 268° (W) 11:35:44 145.880/145.840
FUNcube-1 01 Mar 11:30:16 11:33:13 19° 293° (WNW) 11:36:04 145.935
ZACube-1 01 Mar 11:30:57 11:33:53 18° 293° (WNW) 11:36:40 437.345
CUSAT 1 01 Mar 11:39:05 11:41:34 36° 264° (W) 11:44:00 437.405
UKube-1 01 Mar 11:42:03 11:44:59 17° 295° (WNW) 11:47:46 .
BUGSAT 1 01 Mar 11:45:33 11:48:21 16° 269° (W) 11:51:00 437.445
HUMSAT D 01 Mar 11:46:31 11:49:45 22° 291° (WNW) 11:52:53 437.325/437.525
DUCHIFAT 1 01 Mar 11:47:45 11:49:35 12° 271° (W) 11:51:12 145.980
UWE-3 01 Mar 11:48:22 11:49:15 10° 297° (WNW) 11:49:54 435.000/436.395/437.385
SPROUT 01 Mar 11:53:00 11:56:48 31° 96° (E) 12:00:38 437.525
SO-50 01 Mar 11:56:51 12:01:05 28° 246° (WSW) 12:05:13 436.795
50 SAT 01 Mar 12:00:13 12:03:13 21° 292° (WNW) 12:06:08 437.505
TISAT 1 01 Mar 12:02:35 12:06:27 34° 97° (E) 12:10:19 437.305
ITAMSAT 1 01 Mar 12:25:57 12:29:25 19° 63° (ENE) 12:33:03 435.822/435.867
Oscar 19 01 Mar 12:29:18 12:34:18 55° 72° (ENE) 12:39:20 437.125/150
SWISSCUBE 01 Mar 12:34:13 12:36:30 14° 89° (E) 12:39:03 437.505
ISS 01 Mar 12:34:18 12:36:00 13° 356° (N) 12:37:42 145.825
BEESAT 01 Mar 12:42:46 12:45:31 16° 90° (E) 12:48:28 436.000
AO-7 01 Mar 12:47:53 12:49:35 11° 43° (NE) 12:51:46 29.400- 29.500
CUBEBUG 1 01 Mar 12:51:38 12:54:33 17° 295° (WNW) 12:57:19 437.445
ESTCUBE 1 01 Mar 13:03:21 13:05:34 13° 297° (WNW) 13:07:34 437.505/2401.250
ITUPSAT 1 01 Mar 13:08:08 13:12:14 28° 95° (E) 13:16:23 437.325
Gurwin Techsat 1B 01 Mar 13:26:57 13:32:00 48° 71° (ENE) 13:37:08 435.225
SPROUT 01 Mar 13:29:20 13:32:47 23° 292° (WNW) 13:36:08 437.525
TISAT 1 01 Mar 13:38:54 13:42:04 20° 293° (WNW) 13:45:07 437.305
ITAMSAT 1 01 Mar 14:03:22 14:08:31 59° 259° (W) 14:13:42 435.822/435.867
SWISSCUBE 01 Mar 14:10:07 14:14:54 63° 287° (WNW) 14:19:39 437.505
Oscar 19 01 Mar 14:10:32 14:14:04 18° 270° (W) 14:17:24 437.125/150
ISS 01 Mar 14:11:05 14:13:23 18° 16° (NNE) 14:15:44 145.825
HORYU 2 01 Mar 14:18:34 14:22:40 38° 71° (ENE) 14:26:47 437.375
BEESAT 01 Mar 14:19:05 14:23:48 56° 287° (WNW) 14:28:29 436.000
AO-7 01 Mar 14:32:42 14:40:32 48° 64° (ENE) 14:48:27 29.400- 29.500
ITUPSAT 1 01 Mar 14:45:52 14:50:09 32° 291° (WNW) 14:54:23 437.325
KKS-1 01 Mar 14:53:51 14:58:17 69° 101° (E) 15:02:42 437.445
STARS 01 Mar 15:03:36 15:07:56 56° 100° (E) 15:12:14 437.465
Gurwin Techsat 1B 01 Mar 15:08:13 15:12:18 21° 268° (W) 15:16:14 435.225
JAS-2 01 Mar 15:20:10 15:25:20 47° 69° (ENE) 15:31:08 435.910
ISS 01 Mar 15:47:01 15:50:16 74° 36° (NE) 15:53:30 145.825
YUBILEINY 01 Mar 15:54:04 16:02:22 53° 90° (E) 16:10:51 435.215
MOZHAYETS 4 01 Mar 15:56:09 15:58:58 16° 90° (E) 16:01:58
HORYU 2 01 Mar 15:56:13 15:59:30 19° 267° (W) 16:02:40 437.375
M-CUBED/EXP-1 PRIME 01 Mar 16:03:51 16:07:19 24° 100° (E) 16:11:04 437.505
AUBIESAT-1 01 Mar 16:07:03 16:10:29 24° 100° (E) 16:14:11 437.475
BEESAT 3 01 Mar 16:21:43 16:22:10 10° 109° (ESE) 16:22:51 437.485
AO-7 01 Mar 16:25:46 16:33:29 40° 262° (W) 16:41:08 29.400- 29.500
KKS-1 01 Mar 16:32:33 16:34:26 12° 297° (WNW) 16:36:07 437.445
STARS 01 Mar 16:41:35 16:44:00 14° 296° (WNW) 16:46:15 437.465
BEESAT 2 01 Mar 16:43:32 16:46:02 16° 111° (ESE) 16:48:42 435.950
JAS-2 01 Mar 17:06:33 17:10:54 23° 271° (W) 17:15:27 435.910
AIST 1 01 Mar 17:14:42 17:16:31 13° 67° (ENE) 17:18:32
Cubesat XI-IV 01 Mar 17:19:34 17:24:49 59° 72° (ENE) 17:30:08 437.490
ISS 01 Mar 17:24:54 17:26:20 12° 229° (SW) 17:27:39 145.825
CUTE-I 01 Mar 17:28:52 17:34:12 71° 74° (ENE) 17:39:35 437.470
MOZHAYETS 4 01 Mar 17:32:03 17:36:33 50° 287° (WNW) 17:41:01
PRISM 01 Mar 17:33:42 17:35:03 12° 89° (E) 17:36:40 437.425
M-CUBED/EXP-1 PRIME 01 Mar 17:38:30 17:42:15 32° 294° (WNW) 17:46:13 437.505
AUBIESAT-1 01 Mar 17:41:34 17:45:23 33° 293° (WNW) 17:49:22 437.475
CUBESAT XI-V 01 Mar 17:50:54 17:54:21 20° 91° (E) 17:57:54 437.345
YUBILEINY 01 Mar 17:51:47 17:59:37 34° 291° (WNW) 18:07:21 435.215
BEESAT 3 01 Mar 17:55:39 17:59:44 73° 304° (WNW) 18:03:54 437.485
AIST 2 01 Mar 18:09:57 18:14:03 51° 118° (ESE) 18:18:14 435.215
PHONESAT 2.4 01 Mar 18:16:35 18:19:25 22° 152° (SSE) 18:22:18 2401.200-2431.200
BEESAT 2 01 Mar 18:19:53 18:23:53 48° 307° (NW) 18:27:57 435.950
VERMONT LUNAR 01 Mar 18:21:23 18:24:38 37° 160° (SSE) 18:27:55 437.305
BRITE-PL 01 Mar 18:28:25 18:31:34 16° 64° (ENE) 18:34:53 437.365/2234.400
O/OREOS (USA 219) 01 Mar 18:39:37 18:43:35 28° 58° (ENE) 18:47:34 437.305
GOMX 1 01 Mar 18:40:36 18:42:54 13° 63° (ENE) 18:45:23 467.674
AIST 1 01 Mar 18:50:20 18:54:42 59° 265° (W) 18:59:00
Cubesat XI-IV 01 Mar 19:01:44 19:05:24 18° 270° (W) 19:08:52 437.490
STRAND 1 01 Mar 19:02:52 19:08:01 64° 101° (ESE) 19:13:06 437.568
HO-68 01 Mar 19:06:25 19:12:42 36° 64° (ENE) 19:19:07 435.675
PRISM 01 Mar 19:06:51 19:11:02 59° 286° (WNW) 19:15:11 437.425
CUTE-I 01 Mar 19:11:51 19:14:55 15° 272° (W) 19:17:42 437.470
SEEDS 01 Mar 19:16:17 19:18:52 17° 67° (ENE) 19:21:35 437.485
CANX-2 01 Mar 19:16:52 19:20:03 22° 68° (ENE) 19:23:21 2200.000
DOVE 4 01 Mar 19:19:46 19:23:26 21° 67° (ENE) 19:27:08 437.250
CUBESAT XI-V 01 Mar 19:27:33 19:32:01 41° 288° (WNW) 19:36:24 437.345
CUTE 1.7 + AOD 2 01 Mar 19:35:05 19:38:47 31° 70° (ENE) 19:42:31 437.475
BEESAT 3 01 Mar 19:37:32 19:38:39 11° 324° (NW) 19:39:38 437.485
CINEMA 3 01 Mar 19:37:46 19:40:32 16° 66° (ENE) 19:43:25 145.822/145.860
PCSat 01 Mar 19:42:29 19:45:39 16° 106° (ESE) 19:49:03 145.827
AIST 2 01 Mar 19:49:47 19:52:59 20° 317° (NW) 19:56:07 435.215
PHONESAT 2.4 01 Mar 19:53:56 19:57:33 63° 168° (SSE) 20:01:09 2401.200-2431.200
VERMONT LUNAR 01 Mar 19:58:54 20:02:24 79° 176° (S) 20:05:54 437.305
BRITE-PL 01 Mar 20:03:52 20:09:33 78° 258° (WSW) 20:15:03 437.365/2234.400
DELFI C3 01 Mar 20:04:31 20:06:44 15° 66° (ENE) 20:09:07 145.870
CUBEBUG 2 01 Mar 20:06:25 20:09:10 17° 67° (ENE) 20:12:03 437.445
Oscar 11 01 Mar 20:07:35 20:10:50 22° 68° (ENE) 20:14:10 145.826/435.025
GONETS M04 01 Mar 20:12:04 20:15:24 13° 77° (ENE) 20:19:24
GOMX 1 01 Mar 20:15:01 20:20:28 87° 255° (WSW) 20:25:41 467.674
O/OREOS (USA 219) 01 Mar 20:18:59 20:23:00 29° 256° (WSW) 20:26:56 437.305
AAUSAT CUBESAT 2 01 Mar 20:22:56 20:27:01 65° 76° (ENE) 20:31:09 437.432
COMPASS 1 01 Mar 20:24:32 20:28:41 78° 75° (ENE) 20:32:51 437.405
DX 1 01 Mar 20:29:53 20:33:03 20° 66° (ENE) 20:36:19 434.975-435.025
VELOX 1 01 Mar 20:40:23 20:41:14 11° 62° (ENE) 20:42:20 145.980
STRAND 1 01 Mar 20:43:25 20:46:45 17° 297° (WNW) 20:49:52 437.568
FUNcube-1 01 Mar 20:49:15 20:53:03 30° 71° (ENE) 20:56:51 145.935
ZACube-1 01 Mar 20:50:01 20:53:52 31° 71° (ENE) 20:57:42 437.345
SEEDS 01 Mar 20:50:26 20:54:24 42° 262° (W) 20:58:24 437.485
CANX-2 01 Mar 20:52:05 20:55:52 31° 264° (W) 20:59:38 2200.000
HO-68 01 Mar 20:53:30 21:00:19 46° 261° (W) 21:07:07 435.675
DOVE 4 01 Mar 20:55:54 21:00:56 49° 261° (W) 21:05:45 437.250
UKube-1 01 Mar 20:59:56 21:03:58 38° 71° (ENE) 21:08:03 .
HUMSAT D 01 Mar 21:02:59 21:06:13 22° 69° (ENE) 21:09:31 437.325/437.525
UWE-3 01 Mar 21:06:01 21:10:24 58° 75° (ENE) 21:14:40 435.000/436.395/437.385
CUTE 1.7 + AOD 2 01 Mar 21:11:27 21:14:46 22° 267° (W) 21:18:01 437.475
50 SAT 01 Mar 21:12:21 21:15:09 19° 68° (ENE) 21:18:03 437.505
CINEMA 3 01 Mar 21:12:38 21:17:24 57° 260° (W) 21:21:59 145.822/145.860
PCSat 01 Mar 21:23:10 21:28:34 68° 302° (WNW) 21:34:00 145.827
PHONESAT 2.4 01 Mar 21:32:19 21:35:57 79° 186° (S) 21:39:35 2401.200-2431.200
VERMONT LUNAR 01 Mar 21:36:49 21:40:16 61° 193° (SSW) 21:43:42 437.305
DELFI C3 01 Mar 21:37:45 21:41:37 44° 261° (W) 21:45:31 145.870
CUBEBUG 2 01 Mar 21:41:10 21:45:36 48° 261° (W) 21:49:53 437.445
ANTELSAT 01 Mar 21:41:41 21:43:21 12° 89° (E) 21:45:15 437.575/2403.000
Oscar 11 01 Mar 21:42:56 21:46:51 33° 264° (W) 21:50:45 145.826/435.025
GOMX 1 01 Mar 21:58:16 21:59:20 10° 274° (W) 21:59:59 467.674
GONETS M04 01 Mar 22:02:17 22:10:55 75° 95° (E) 22:19:36
AISAT 01 Mar 22:02:39 22:07:09 80° 76° (ENE) 22:11:41 437.250
DX 1 01 Mar 22:04:57 22:09:05 38° 262° (W) 22:13:12 434.975-435.025
CUBEBUG 1 01 Mar 22:10:24 22:14:32 39° 71° (ENE) 22:18:43 437.445
VELOX 1 01 Mar 22:12:43 22:17:13 83° 255° (WSW) 22:21:45 145.980
POLYITAN 1 01 Mar 22:14:19 22:16:49 16° 91° (E) 22:19:28 437.675
POPSAT HIP 1 01 Mar 22:15:24 22:17:55 16° 91° (E) 22:20:35 437.405
RS-15 01 Mar 22:19:49 22:28:51 33° 107° (ESE) 22:38:17 29.354- 29.394
ESTCUBE 1 01 Mar 22:24:11 22:28:38 62° 75° (ENE) 22:33:08 437.505/2401.250
FUNcube-1 01 Mar 22:25:51 22:29:26 24° 266° (W) 22:32:54 145.935
ZACube-1 01 Mar 22:26:45 22:30:19 23° 266° (W) 22:33:43 437.345
UKube-1 01 Mar 22:37:10 22:40:19 19° 267° (W) 22:43:21 .
UNISAT 6 01 Mar 22:37:42 22:41:54 52° 100° (E) 22:46:10 437.425
HUMSAT D 01 Mar 22:38:08 22:41:53 30° 264° (W) 22:45:34 437.325/437.525
NANOSAT C BR1 01 Mar 22:38:09 22:41:48 28° 95° (E) 22:45:28 145.865
UWE-3 01 Mar 22:45:12 22:47:21 13° 271° (W) 22:49:14 435.000/436.395/437.385
50 SAT 01 Mar 22:46:22 22:50:00 32° 263° (W) 22:53:35 437.505
SPROUT 01 Mar 22:47:31 22:51:02 25° 69° (ENE) 22:54:38 437.525
TISAT 1 01 Mar 22:55:09 22:58:45 27° 70° (ENE) 23:02:26 437.305
TIGRISAT 01 Mar 23:03:18 23:07:35 82° 284° (WNW) 23:11:54 435.000
CUSAT 1 01 Mar 23:04:28 23:09:06 22° 94° (E) 23:13:07 437.405
QB50P1 01 Mar 23:10:19 23:14:33 67° 101° (E) 23:18:44 145.935-145.965
PCSat 01 Mar 23:10:26 23:13:07 13° 323° (NW) 23:15:36 145.827
PHONESAT 2.4 01 Mar 23:10:52 23:14:15 37° 201° (SSW) 23:17:37 2401.200-2431.200
QB50P2 01 Mar 23:13:46 23:18:01 75° 101° (ESE) 23:22:14 145.880/145.840
VERMONT LUNAR 01 Mar 23:15:11 23:17:50 20° 208° (SSW) 23:20:27 437.305
ANTELSAT 01 Mar 23:16:22 23:20:35 57° 286° (WNW) 23:24:50 437.575/2403.000
BUGSAT 1 01 Mar 23:26:17 23:30:28 76° 102° (ESE) 23:34:34 437.445
DUCHIFAT 1 01 Mar 23:29:50 23:34:04 74° 285° (WNW) 23:38:14 145.980
SWISSCUBE 01 Mar 23:40:57 23:43:56 17° 64° (ENE) 23:47:04 437.505
CUBEBUG 1 01 Mar 23:47:51 23:51:07 19° 268° (W) 23:54:14 437.445
POLYITAN 1 01 Mar 23:49:00 23:53:02 43° 288° (WNW) 23:57:01 437.675
BEESAT 01 Mar 23:49:28 23:52:43 19° 65° (ENE) 23:56:07 436.000
POPSAT HIP 1 01 Mar 23:50:04 23:54:05 42° 288° (WNW) 23:58:04 437.405
GONETS M04 02 Mar 00:02:01 00:08:49 24° 297° (WNW) 00:15:20
ESTCUBE 1 02 Mar 00:03:55 00:06:01 13° 272° (W) 00:07:53 437.505/2401.250
DANDE 02 Mar 00:09:09 00:16:13 69° 98° (E) 00:21:33 436.750
NANOSAT C BR1 02 Mar 00:14:08 00:17:36 24° 291° (WNW) 00:20:57 145.865
ITUPSAT 1 02 Mar 00:15:04 00:19:17 32° 69° (ENE) 00:23:35 437.325
UNISAT 6 02 Mar 00:15:55 00:18:22 15° 295° (WNW) 00:20:38 437.425
SPROUT 02 Mar 00:23:14 00:27:03 29° 265° (W) 00:30:50 437.525
RS-15 02 Mar 00:29:38 00:40:31 69° 308° (NW) 00:51:35 29.354- 29.394
TISAT 1 02 Mar 00:30:56 00:34:33 26° 265° (W) 00:38:08 437.305
SO-50 02 Mar 00:34:10 00:35:12 11° 108° (ESE) 00:36:32 436.795
BEESAT 3 02 Mar 00:39:43 00:40:07 10° 35° (NE) 00:40:41 437.485
Oscar 19 02 Mar 00:41:48 00:45:19 19° 91° (E) 00:49:00 437.125/150
CUSAT 1 02 Mar 00:45:42 00:51:57 48° 282° (WNW) 00:56:42 437.405
QB50P1 02 Mar 00:48:26 00:49:56 11° 297° (WNW) 00:51:14 145.935-145.965
QB50P2 02 Mar 00:52:34 00:53:23 10° 297° (WNW) 00:53:58 145.880/145.840
BEESAT 2 02 Mar 01:02:41 01:04:52 14° 39° (NE) 01:07:09 435.950
SWISSCUBE 02 Mar 01:16:44 01:21:24 55° 260° (W) 01:26:08 437.505
BEESAT 02 Mar 01:25:38 01:30:14 48° 261° (W) 01:34:53 436.000
Gurwin Techsat 1B 02 Mar 01:44:02 01:47:40 19° 90° (E) 01:51:29 435.225
KKS-1 02 Mar 01:51:53 01:56:18 63° 74° (ENE) 02:00:46 437.445
ITUPSAT 1 02 Mar 01:53:09 01:57:13 27° 265° (W) 02:01:15 437.325
DANDE 02 Mar 01:55:19 01:59:44 18° 289° (WNW) 02:03:16 436.750
STARS 02 Mar 02:00:32 02:04:48 50° 73° (ENE) 02:09:07 437.465
YUBILEINY 02 Mar 02:04:35 02:11:34 26° 65° (ENE) 02:18:49 435.215
SO-50 02 Mar 02:10:30 02:15:06 83° 303° (WNW) 02:19:54 436.795
BEESAT 3 02 Mar 02:14:57 02:19:05 67° 56° (NE) 02:23:09 437.485
ITAMSAT 1 02 Mar 02:16:14 02:21:19 50° 99° (E) 02:26:22 435.822/435.867
Oscar 19 02 Mar 02:20:04 02:25:02 51° 288° (WNW) 02:29:58 437.125/150
AIST 2 02 Mar 02:31:57 02:35:53 35° 50° (NE) 02:39:47 435.215
AO-7 02 Mar 02:37:15 02:40:08 13° 84° (E) 02:43:45 29.400- 29.500
BEESAT 2 02 Mar 02:39:27 02:43:38 79° 238° (WSW) 02:47:44 435.950
RS-15 02 Mar 02:46:38 02:55:31 26° 337° (NNW) 03:04:25 29.354- 29.394
M-CUBED/EXP-1 PRIME 02 Mar 02:53:57 02:56:42 25° 65° (ENE) 02:59:35 437.505
AUBIESAT-1 02 Mar 02:56:43 02:59:25 24° 65° (ENE) 03:02:15 437.475
MOZHAYETS 4 02 Mar 02:58:47 03:01:29 16° 65° (ENE) 03:04:22
Gurwin Techsat 1B 02 Mar 03:22:51 03:28:03 54° 288° (WNW) 03:33:12 435.225
KKS-1 02 Mar 03:31:32 03:33:28 12° 271° (W) 03:35:09 437.445
STARS 02 Mar 03:38:58 03:41:38 15° 270° (W) 03:44:06 437.465
HORYU 2 02 Mar 03:46:03 03:50:32 80° 103° (ESE) 03:54:59 437.375
SO-50 02 Mar 03:53:50 03:56:30 14° 324° (NW) 03:59:04 436.795
BEESAT 3 02 Mar 03:55:23 03:56:41 11° 251° (WSW) 03:57:45 437.485
ITAMSAT 1 02 Mar 03:56:34 04:00:30 21° 296° (WNW) 04:04:18 435.822/435.867
YUBILEINY 02 Mar 04:00:31 04:09:18 70° 266° (W) 04:18:01 435.215
AIST 2 02 Mar 04:10:53 04:14:20 24° 247° (WSW) 04:17:40 435.215
JAS-2 02 Mar 04:12:19 04:19:29 50° 98° (E) 04:27:06 435.910
AO-7 02 Mar 04:26:19 04:34:37 72° 105° (ESE) 04:42:54 29.400- 29.500
PCSat 02 Mar 04:28:52 04:32:20 17° 41° (NE) 04:35:57 145.827
M-CUBED/EXP-1 PRIME 02 Mar 04:29:33 04:31:46 16° 262° (W) 04:33:57 437.505
AUBIESAT-1 02 Mar 04:32:04 04:34:24 17° 262° (W) 04:36:41 437.475
MOZHAYETS 4 02 Mar 04:33:53 04:38:20 53° 260° (W) 04:42:50
STRAND 1 02 Mar 04:43:27 04:45:17 12° 60° (ENE) 04:47:24 437.568
CUBESAT XI-V 02 Mar 04:54:40 04:58:04 21° 67° (ENE) 05:01:37 437.345
RS-15 02 Mar 05:04:57 05:13:04 22° 12° (NNE) 05:21:35 29.354- 29.394
HORYU 2 02 Mar 05:25:24 05:26:38 11° 298° (WNW) 05:27:37 437.375
Cubesat XI-IV 02 Mar 05:37:36 05:41:47 23° 92° (E) 05:46:04 437.490
CUTE-I 02 Mar 05:46:34 05:51:05 28° 94° (E) 05:55:41 437.470
PRISM 02 Mar 05:57:00 06:01:08 82° 257° (WSW) 06:05:20 437.425
JAS-2 02 Mar 05:57:44 06:04:21 36° 293° (WNW) 06:11:13 435.910
YUBILEINY 02 Mar 06:01:15 06:04:41 12° 284° (WNW) 06:07:23 435.215
PCSat 02 Mar 06:11:06 06:16:34 87° 238° (WSW) 06:21:59 145.827
STRAND 1 02 Mar 06:18:40 06:23:49 90° 210° (SSW) 06:29:01 437.568
AO-7 02 Mar 06:20:05 06:26:49 28° 304° (WNW) 06:33:18 29.400- 29.500
CUBESAT XI-V 02 Mar 06:30:49 06:35:16 42° 262° (W) 06:39:45 437.345
